This is the latest recevied weather packets stored in our database for station/object OH2EGI-2. If no packets are shown the sender has not sent any weather packets the latest 1 day(s).
| Time | Temp. | Humidity | Pressure | Rain* | Wind** | Luminosity | Snow |
|---|---|---|---|---|---|---|---|
| 1778064392 | 18.33° C | 24% | 1005.5 hPa | 0 mm | - | - | - |
| 1778064092 | 17.78° C | 24% | 1005.4 hPa | 0 mm | - | - | - |
| 1778063792 | 20° C | 23% | 1005.1 hPa | 0 mm | - | - | - |
| 1778063492 | 20.56° C | 24% | 1005.1 hPa | 0 mm | - | - | - |
| 1778063192 | 19.44° C | 24% | 1005.1 hPa | 0 mm | - | - | - |
| 1778062892 | 18.89° C | 24% | 1005.2 hPa | 0 mm | - | - | - |
| 1778062592 | 18.33° C | 25% | 1005.1 hPa | 0 mm | - | - | - |
| 1778062292 | 17.78° C | 26% | 1005.1 hPa | 0 mm | - | - | - |
| 1778061992 | 17.22° C | 26% | 1005.1 hPa | 0 mm | - | - | - |
| 1778061692 | 16.11° C | 27% | 1005.2 hPa | 0 mm | - | - | - |
| 1778061392 | 15° C | 28% | 1005.2 hPa | 0 mm | - | - | - |
| 1778061092 | 14.44° C | 30% | 1005.3 hPa | 0 mm | - | - | - |
| 1778060792 | 13.89° C | 29% | 1005.3 hPa | 0 mm | - | - | - |
| 1778060492 | 15.56° C | 29% | 1005.2 hPa | 0 mm | - | - | - |
| 1778060192 | 15.56° C | 29% | 1005 hPa | 0 mm | - | - | - |
| 1778059892 | 15.56° C | 30% | 1004.9 hPa | 0 mm | - | - | - |
| 1778059592 | 13.89° C | 32% | 1004.9 hPa | 0 mm | - | - | - |
| 1778059292 | 12.78° C | 32% | 1004.9 hPa | 0 mm | - | - | - |
| 1778058992 | 13.33° C | 32% | 1004.9 hPa | 0 mm | - | - | - |
| 1778058692 | 12.78° C | 32% | 1004.8 hPa | 0 mm | - | - | - |
| 1778058392 | 12.22° C | 33% | 1004.8 hPa | 0 mm | - | - | - |
| 1778058092 | 12.78° C | 32% | 1004.9 hPa | 0 mm | - | - | - |
| 1778057792 | 12.78° C | 32% | 1004.8 hPa | 0 mm | - | - | - |
| 1778057492 | 12.78° C | 33% | 1004.8 hPa | 0 mm | - | - | - |
| 1778057192 | 12.78° C | 33% | 1004.9 hPa | 0 mm | - | - | - |
* Rain latest hour (hover to see other rain measurements)
** Current wind speed in m/s (hover to see current wind gust speed)